Time,TemperatureF,DewpointF,PressureIn,WindDirection,WindDirectionDegrees,WindSpeedMPH,WindSpeedGustMPH,Humidity,HourlyPrecipIn,Conditions,Clouds,dailyrainin,SoftwareType,DateUTC
2013-01-23 00:00:00,5.9,-6.3,30.21,South,180,0.0,0.0,56,0.00,,,0.00,meteohub,2013-01-23 05:00:00,
2013-01-23 00:02:00,5.9,-6.3,30.20,North,0,0.0,0.0,56,0.00,,,0.00,meteohub,2013-01-23 05:02:00,
2013-01-23 00:04:00,5.9,-6.9,30.21,NW,315,0.0,0.0,55,0.00,,,0.00,meteohub,2013-01-23 05:04:00,
2013-01-23 00:05:00,5.9,-6.9,30.21,West,270,0.0,0.0,55,0.00,,,0.00,meteohub,2013-01-23 05:05:00,
2013-01-23 00:10:00,5.9,-6.9,30.21,NW,315,0.0,0.0,55,0.00,,,0.00,meteohub,2013-01-23 05:10:00,
2013-01-23 00:15:00,5.9,-6.9,30.21,West,270,1.0,0.0,55,0.00,,,0.00,meteohub,2013-01-23 05:15:00,
2013-01-23 00:20:00,6.1,-6.7,30.21,NW,315,2.0,3.0,55,0.00,,,0.00,meteohub,2013-01-23 05:20:00,
2013-01-23 00:26:00,5.9,-6.9,30.21,NW,315,0.0,3.0,55,0.00,,,0.00,meteohub,2013-01-23 05:26:00,
2013-01-23 00:31:00,5.9,-6.9,30.21,West,270,2.0,3.0,55,0.00,,,0.00,meteohub,2013-01-23 05:31:00,
2013-01-23 00:36:00,5.9,-6.9,30.21,SW,225,2.0,3.0,55,0.00,,,0.00,meteohub,2013-01-23 05:36:00,
2013-01-23 00:42:00,5.9,-6.9,30.21,NW,315,1.0,3.0,55,0.00,,,0.00,meteohub,2013-01-23 05:42:00,
2013-01-23 00:47:00,5.9,-6.9,30.21,SW,225,2.0,3.0,55,0.00,,,0.00,meteohub,2013-01-23 05:47:00,
2013-01-23 00:52:00,5.9,-6.9,30.21,North,0,2.0,3.0,55,0.00,,,0.00,meteohub,2013-01-23 05:52:00,
2013-01-23 00:57:00,5.9,-6.9,30.20,SW,225,0.0,3.0,55,0.00,,,0.00,meteohub,2013-01-23 05:57:00,
2013-01-23 01:02:00,5.9,-6.9,30.20,North,0,2.0,3.0,55,0.00,,,0.00,meteohub,2013-01-23 06:02:00,
2013-01-23 01:07:00,5.9,-6.9,30.20,NW,315,2.0,2.0,55,0.00,,,0.00,meteohub,2013-01-23 06:07:00,
2013-01-23 01:12:00,5.9,-6.9,30.20,SW,225,1.0,2.0,55,0.00,,,0.00,meteohub,2013-01-23 06:12:00,
2013-01-23 01:17:00,5.9,-6.9,30.21,NW,315,1.0,2.0,55,0.00,,,0.00,meteohub,2013-01-23 06:17:00,
2013-01-23 01:22:00,5.9,-6.9,30.20,NW,315,0.0,2.0,55,0.00,,,0.00,meteohub,2013-01-23 06:22:00,
2013-01-23 01:28:00,5.9,-6.9,30.21,SW,225,2.0,2.0,55,0.00,,,0.00,meteohub,2013-01-23 06:28:00,
2013-01-23 01:33:00,5.9,-6.9,30.21,West,270,2.0,2.0,55,0.00,,,0.00,meteohub,2013-01-23 06:33:00,
2013-01-23 01:38:00,5.9,-6.9,30.20,SW,225,0.0,4.0,55,0.00,,,0.00,meteohub,2013-01-23 06:38:00,
2013-01-23 01:43:00,5.9,-6.9,30.20,North,0,2.0,4.0,55,0.00,,,0.00,meteohub,2013-01-23 06:43:00,
2013-01-23 01:48:00,5.9,-6.9,30.20,SW,225,2.0,4.0,55,0.00,,,0.00,meteohub,2013-01-23 06:48:00,
2013-01-23 01:53:00,5.9,-6.9,30.20,West,270,2.0,2.0,55,0.00,,,0.00,meteohub,2013-01-23 06:53:00,
2013-01-23 01:59:00,5.7,-6.9,30.20,NW,315,0.0,2.0,55,0.00,,,0.00,meteohub,2013-01-23 06:59:00,
2013-01-23 02:04:00,5.7,-7.4,30.20,SW,225,2.0,2.0,54,0.00,,,0.00,meteohub,2013-01-23 07:04:00,
2013-01-23 02:09:00,5.7,-7.4,30.20,West,270,2.0,2.0,54,0.00,,,0.00,meteohub,2013-01-23 07:09:00,
2013-01-23 02:14:00,5.7,-7.4,30.20,West,270,2.0,3.0,54,0.00,,,0.00,meteohub,2013-01-23 07:14:00,
2013-01-23 02:19:00,5.7,-7.4,30.20,West,270,2.0,3.0,54,0.00,,,0.00,meteohub,2013-01-23 07:19:00,
2013-01-23 02:24:00,5.9,-7.2,30.20,NE,45,2.0,3.0,54,0.00,,,0.00,meteohub,2013-01-23 07:24:00,
2013-01-23 02:29:00,5.7,-7.8,30.20,North,0,1.0,3.0,53,0.00,,,0.00,meteohub,2013-01-23 07:29:00,
2013-01-23 02:35:00,5.7,-7.8,30.20,NW,315,1.0,3.0,53,0.00,,,0.00,meteohub,2013-01-23 07:35:00,
2013-01-23 02:40:00,5.7,-7.8,30.20,NW,315,0.0,3.0,53,0.00,,,0.00,meteohub,2013-01-23 07:40:00,
2013-01-23 02:45:00,5.7,-7.8,30.20,West,270,2.0,3.0,53,0.00,,,0.00,meteohub,2013-01-23 07:45:00,
2013-01-23 02:50:00,5.7,-7.8,30.21,North,0,0.0,2.0,53,0.00,,,0.00,meteohub,2013-01-23 07:50:00,
2013-01-23 02:55:00,5.7,-7.8,30.21,NE,45,2.0,2.0,53,0.00,,,0.00,meteohub,2013-01-23 07:55:00,
2013-01-23 03:01:00,5.7,-7.8,30.21,West,270,1.0,2.0,53,0.00,,,0.00,meteohub,2013-01-23 08:01:00,
2013-01-23 03:06:00,5.7,-7.8,30.21,West,270,1.0,2.0,53,0.00,,,0.00,meteohub,2013-01-23 08:06:00,
2013-01-23 03:11:00,5.7,-7.8,30.21,North,0,2.0,2.0,53,0.00,,,0.00,meteohub,2013-01-23 08:11:00,
2013-01-23 03:17:00,5.9,-7.6,30.21,West,270,3.0,3.0,53,0.00,,,0.00,meteohub,2013-01-23 08:17:00,
2013-01-23 03:22:00,5.9,-7.2,30.21,SW,225,1.0,4.0,54,0.00,,,0.00,meteohub,2013-01-23 08:22:00,
2013-01-23 03:27:00,5.9,-7.2,30.20,NW,315,2.0,4.0,54,0.00,,,0.00,meteohub,2013-01-23 08:27:00,
2013-01-23 03:32:00,5.9,-7.2,30.20,North,0,2.0,4.0,54,0.00,,,0.00,meteohub,2013-01-23 08:32:00,
2013-01-23 03:37:00,5.9,-7.2,30.20,West,270,2.0,3.0,54,0.00,,,0.00,meteohub,2013-01-23 08:37:00,
2013-01-23 03:42:00,5.9,-7.2,30.20,NE,45,1.0,3.0,54,0.00,,,0.00,meteohub,2013-01-23 08:42:00,
2013-01-23 03:48:00,5.7,-7.4,30.20,West,270,0.0,3.0,54,0.00,,,0.00,meteohub,2013-01-23 08:48:00,
2013-01-23 03:53:00,5.7,-7.4,30.20,West,270,1.0,3.0,54,0.00,,,0.00,meteohub,2013-01-23 08:53:00,
2013-01-23 03:58:00,5.5,-7.4,30.20,West,270,2.0,3.0,54,0.00,,,0.00,meteohub,2013-01-23 08:58:00,
2013-01-23 04:03:00,5.5,-7.4,30.20,West,270,2.0,3.0,54,0.00,,,0.00,meteohub,2013-01-23 09:03:00,
2013-01-23 04:08:00,5.4,-8.1,30.20,NW,315,0.0,2.0,53,0.00,,,0.00,meteohub,2013-01-23 09:08:00,
2013-01-23 04:13:00,5.2,-8.1,30.20,NW,315,0.0,2.0,53,0.00,,,0.00,meteohub,2013-01-23 09:13:00,
2013-01-23 04:19:00,5.0,-8.3,30.21,West,270,0.0,2.0,53,0.00,,,0.00,meteohub,2013-01-23 09:19:00,
2013-01-23 04:24:00,4.8,-8.1,30.21,West,270,0.0,0.0,54,0.00,,,0.00,meteohub,2013-01-23 09:24:00,
2013-01-23 04:29:00,4.8,-8.1,30.20,NE,45,0.0,0.0,54,0.00,,,0.00,meteohub,2013-01-23 09:29:00,
2013-01-23 04:34:00,4.5,-8.5,30.20,NE,45,0.0,0.0,54,0.00,,,0.00,meteohub,2013-01-23 09:34:00,
2013-01-23 04:39:00,4.1,-8.9,30.20,NE,45,0.0,0.0,54,0.00,,,0.00,meteohub,2013-01-23 09:39:00,
2013-01-23 04:44:00,3.7,-9.2,30.20,North,0,0.0,0.0,54,0.00,,,0.00,meteohub,2013-01-23 09:44:00,
2013-01-23 04:49:00,3.4,-9.6,30.20,NE,45,0.0,0.0,54,0.00,,,0.00,meteohub,2013-01-23 09:49:00,
2013-01-23 04:55:00,3.2,-9.4,30.20,NE,45,0.0,0.0,55,0.00,,,0.00,meteohub,2013-01-23 09:55:00,
2013-01-23 05:00:00,3.0,-9.0,30.21,NE,45,0.0,0.0,56,0.00,,,0.00,meteohub,2013-01-23 10:00:00,
2013-01-23 05:05:00,3.0,-9.0,30.20,NE,45,0.0,0.0,56,0.00,,,0.00,meteohub,2013-01-23 10:05:00,
2013-01-23 05:10:00,2.7,-9.4,30.20,NE,45,0.0,0.0,56,0.00,,,0.00,meteohub,2013-01-23 10:10:00,
2013-01-23 05:15:00,2.3,-9.8,30.20,West,270,0.0,0.0,56,0.00,,,0.00,meteohub,2013-01-23 10:15:00,
2013-01-23 05:21:00,2.1,-9.6,30.20,North,0,0.0,0.0,57,0.00,,,0.00,meteohub,2013-01-23 10:21:00,
2013-01-23 05:25:00,1.9,-9.8,30.19,North,0,0.0,0.0,57,0.00,,,0.00,meteohub,2013-01-23 10:25:00,
2013-01-23 05:31:00,1.8,-9.9,30.19,North,0,0.0,0.0,57,0.00,,,0.00,meteohub,2013-01-23 10:31:00,
2013-01-23 05:36:00,1.8,-9.9,30.19,North,0,0.0,0.0,57,0.00,,,0.00,meteohub,2013-01-23 10:36:00,
2013-01-23 05:41:00,1.6,-10.1,30.19,NE,45,0.0,0.0,57,0.00,,,0.00,meteohub,2013-01-23 10:41:00,
2013-01-23 05:47:00,1.2,-11.9,30.19,NE,45,0.0,0.0,53,0.00,,,0.00,meteohub,2013-01-23 10:47:00,
2013-01-23 05:52:00,0.9,-12.3,30.19,NE,45,0.0,0.0,53,0.00,,,0.00,meteohub,2013-01-23 10:52:00,
2013-01-23 05:57:00,0.5,-12.6,30.19,NE,45,0.0,0.0,53,0.00,,,0.00,meteohub,2013-01-23 10:57:00,
2013-01-23 06:02:00,0.3,-12.8,30.19,NE,45,0.0,0.0,53,0.00,,,0.00,meteohub,2013-01-23 11:02:00,
2013-01-23 06:08:00,0.1,-13.0,30.19,NE,45,0.0,0.0,53,0.00,,,0.00,meteohub,2013-01-23 11:08:00,
2013-01-23 06:13:00,-0.4,-13.4,30.19,NE,45,0.0,0.0,53,0.00,,,0.00,meteohub,2013-01-23 11:13:00,
2013-01-23 06:18:00,-0.8,-13.4,30.19,NE,45,0.0,0.0,54,0.00,,,0.00,meteohub,2013-01-23 11:18:00,
2013-01-23 06:24:00,-0.9,-13.5,30.19,NE,45,0.0,0.0,54,0.00,,,0.00,meteohub,2013-01-23 11:24:00,
2013-01-23 06:29:00,-1.3,-13.9,30.18,NE,45,0.0,0.0,54,0.00,,,0.00,meteohub,2013-01-23 11:29:00,
2013-01-23 06:34:00,-1.5,-14.1,30.18,NE,45,0.0,0.0,54,0.00,,,0.00,meteohub,2013-01-23 11:34:00,
2013-01-23 06:39:00,-1.5,-14.1,30.18,NE,45,0.0,0.0,54,0.00,,,0.00,meteohub,2013-01-23 11:39:00,
2013-01-23 06:45:00,-1.7,-14.3,30.18,NE,45,0.0,0.0,54,0.00,,,0.00,meteohub,2013-01-23 11:45:00,
2013-01-23 06:50:00,-1.7,-14.3,30.18,NE,45,0.0,0.0,54,0.00,,,0.00,meteohub,2013-01-23 11:50:00,
2013-01-23 06:55:00,-1.8,-14.4,30.18,NE,45,0.0,0.0,54,0.00,,,0.00,meteohub,2013-01-23 11:55:00,
2013-01-23 07:00:00,-2.0,-14.6,30.18,NE,45,0.0,0.0,54,0.00,,,0.00,meteohub,2013-01-23 12:00:00,
2013-01-23 07:05:00,-2.0,-14.6,30.18,NE,45,0.0,0.0,54,0.00,,,0.00,meteohub,2013-01-23 12:05:00,
2013-01-23 07:11:00,-2.0,-14.6,30.19,NE,45,0.0,0.0,54,0.00,,,0.00,meteohub,2013-01-23 12:11:00,
2013-01-23 07:16:00,-2.0,-14.6,30.18,NE,45,0.0,0.0,54,0.00,,,0.00,meteohub,2013-01-23 12:16:00,
2013-01-23 07:21:00,-2.0,-14.6,30.19,NE,45,0.0,0.0,54,0.00,,,0.00,meteohub,2013-01-23 12:21:00,
2013-01-23 07:26:00,-1.8,-14.4,30.18,NE,45,0.0,0.0,54,0.00,,,0.00,meteohub,2013-01-23 12:26:00,
2013-01-23 07:32:00,-1.8,-14.4,30.19,NE,45,0.0,0.0,54,0.00,,,0.00,meteohub,2013-01-23 12:32:00,
2013-01-23 07:37:00,-1.7,-13.9,30.19,NE,45,0.0,0.0,55,0.00,,,0.00,meteohub,2013-01-23 12:37:00,
2013-01-23 07:42:00,-1.3,-13.5,30.19,NE,45,0.0,0.0,55,0.00,,,0.00,meteohub,2013-01-23 12:42:00,
2013-01-23 07:47:00,-1.1,-13.4,30.18,East,90,0.0,0.0,55,0.00,,,0.00,meteohub,2013-01-23 12:47:00,
2013-01-23 07:52:00,-0.6,-12.5,30.18,East,90,0.0,0.0,56,0.00,,,0.00,meteohub,2013-01-23 12:52:00,
2013-01-23 07:58:00,-0.2,-12.5,30.18,East,90,0.0,0.0,55,0.00,,,0.00,meteohub,2013-01-23 12:58:00,
2013-01-23 08:03:00,0.3,-12.1,30.18,SW,225,0.0,0.0,55,0.00,,,0.00,meteohub,2013-01-23 13:03:00,
2013-01-23 08:08:00,0.9,-11.2,30.18,SW,225,0.0,0.0,56,0.00,,,0.00,meteohub,2013-01-23 13:08:00,
2013-01-23 08:13:00,1.2,-10.8,30.18,NE,45,0.0,0.0,56,0.00,,,0.00,meteohub,2013-01-23 13:13:00,
2013-01-23 08:18:00,1.6,-8.7,30.18,SW,225,0.0,0.0,61,0.00,,,0.00,meteohub,2013-01-23 13:18:00,
2013-01-23 08:23:00,2.3,-7.8,30.18,South,180,0.0,0.0,62,0.00,,,0.00,meteohub,2013-01-23 13:23:00,
2013-01-23 08:28:00,3.2,-7.2,30.18,SW,225,2.0,2.0,61,0.00,,,0.00,meteohub,2013-01-23 13:28:00,
2013-01-23 08:33:00,3.9,-6.2,30.18,NW,315,0.0,4.0,62,0.00,,,0.00,meteohub,2013-01-23 13:33:00,
2013-01-23 08:38:00,4.5,-5.6,30.18,South,180,3.0,4.0,62,0.00,,,0.00,meteohub,2013-01-23 13:38:00,
2013-01-23 08:43:00,5.0,-5.1,30.18,South,180,2.0,4.0,62,0.00,,,0.00,meteohub,2013-01-23 13:43:00,
2013-01-23 08:49:00,5.4,-5.1,30.18,SW,225,2.0,4.0,61,0.00,,,0.00,meteohub,2013-01-23 13:49:00,
2013-01-23 08:54:00,5.5,-5.1,30.18,SW,225,2.0,3.0,61,0.00,,,0.00,meteohub,2013-01-23 13:54:00,
2013-01-23 08:59:00,5.7,-4.9,30.18,SW,225,2.0,3.0,61,0.00,,,0.00,meteohub,2013-01-23 13:59:00,
2013-01-23 09:04:00,6.1,-4.5,30.18,West,270,1.0,3.0,61,0.00,,,0.00,meteohub,2013-01-23 14:04:00,
2013-01-23 09:09:00,6.3,-4.7,30.18,SW,225,2.0,2.0,60,0.00,,,0.00,meteohub,2013-01-23 14:09:00,
2013-01-23 09:14:00,6.4,-4.5,30.18,South,180,3.0,3.0,60,0.00,,,0.00,meteohub,2013-01-23 14:14:00,
2013-01-23 09:19:00,6.8,-4.9,30.18,South,180,2.0,3.0,58,0.00,,,0.00,meteohub,2013-01-23 14:19:00,
2013-01-23 09:24:00,7.2,-4.5,30.18,South,180,2.0,3.0,58,0.00,,,0.00,meteohub,2013-01-23 14:24:00,
2013-01-23 09:30:00,7.3,-4.7,30.18,North,0,2.0,3.0,57,0.00,,,0.00,meteohub,2013-01-23 14:30:00,
2013-01-23 09:35:00,7.7,-4.7,30.18,SSW,203,2.0,3.0,56,0.00,,,0.00,meteohub,2013-01-23 14:35:00,
2013-01-23 09:40:00,7.9,-4.9,30.17,SW,225,5.0,5.0,55,0.00,,,0.00,meteohub,2013-01-23 14:40:00,
2013-01-23 09:45:00,7.9,-5.3,30.17,West,270,4.0,4.0,54,0.00,,,0.00,meteohub,2013-01-23 14:45:00,
2013-01-23 09:50:00,8.1,-5.6,30.17,WSW,248,3.0,5.0,53,0.00,,,0.00,meteohub,2013-01-23 14:50:00,
2013-01-23 09:55:00,8.4,-5.6,30.17,West,270,2.0,5.0,52,0.00,,,0.00,meteohub,2013-01-23 14:55:00,
2013-01-23 10:00:00,8.8,-5.6,30.17,South,180,4.0,5.0,51,0.00,,,0.00,meteohub,2013-01-23 15:00:00,
2013-01-23 10:05:00,9.0,-6.0,30.17,South,180,3.0,4.0,50,0.00,,,0.00,meteohub,2013-01-23 15:05:00,
2013-01-23 10:10:00,9.1,-6.2,30.17,SE,135,3.0,4.0,49,0.00,,,0.00,meteohub,2013-01-23 15:10:00,
2013-01-23 10:16:00,9.7,-6.2,30.17,South,180,5.0,7.0,48,0.00,,,0.00,meteohub,2013-01-23 15:16:00,
2013-01-23 10:21:00,9.9,-6.0,30.17,SW,225,3.0,8.0,48,0.00,,,0.00,meteohub,2013-01-23 15:21:00,
2013-01-23 10:26:00,10.2,-5.6,30.17,South,180,4.0,8.0,48,0.00,,,0.00,meteohub,2013-01-23 15:26:00,
2013-01-23 10:31:00,10.8,-3.5,30.17,South,180,5.0,8.0,52,0.00,,,0.00,meteohub,2013-01-23 15:31:00,
2013-01-23 10:36:00,10.8,-3.5,30.17,North,0,4.0,7.0,52,0.00,,,0.00,meteohub,2013-01-23 15:36:00,
2013-01-23 10:41:00,10.9,-2.9,30.17,West,270,3.0,7.0,53,0.00,,,0.00,meteohub,2013-01-23 15:41:00,
2013-01-23 10:46:00,10.9,-2.9,30.17,South,180,6.0,7.0,53,0.00,,,0.00,meteohub,2013-01-23 15:46:00,
2013-01-23 10:51:00,11.1,-2.7,30.17,NW,315,2.0,6.0,53,0.00,,,0.00,meteohub,2013-01-23 15:51:00,
2013-01-23 10:56:00,11.3,-2.2,30.17,SW,225,2.0,6.0,54,0.00,,,0.00,meteohub,2013-01-23 15:56:00,
2013-01-23 11:02:00,11.3,-2.2,30.17,South,180,3.0,6.0,54,0.00,,,0.00,meteohub,2013-01-23 16:02:00,
2013-01-23 11:07:00,11.5,-2.0,30.16,South,180,3.0,5.0,54,0.00,,,0.00,meteohub,2013-01-23 16:07:00,
2013-01-23 11:12:00,11.8,-1.3,30.16,SW,225,3.0,7.0,55,0.00,,,0.00,meteohub,2013-01-23 16:12:00,
2013-01-23 11:17:00,12.0,-1.1,30.16,SW,225,4.0,7.0,55,0.00,,,0.00,meteohub,2013-01-23 16:17:00,
2013-01-23 11:22:00,12.4,-1.1,30.16,SW,225,3.0,7.0,54,0.00,,,0.00,meteohub,2013-01-23 16:22:00,
2013-01-23 11:27:00,13.1,-0.4,30.15,West,270,2.0,7.0,54,0.00,,,0.00,meteohub,2013-01-23 16:27:00,
2013-01-23 11:32:00,13.6,0.1,30.15,NW,315,4.0,8.0,54,0.00,,,0.00,meteohub,2013-01-23 16:32:00,
2013-01-23 11:37:00,14.0,0.0,30.15,SW,225,2.0,8.0,53,0.00,,,0.00,meteohub,2013-01-23 16:37:00,
2013-01-23 11:42:00,14.0,0.0,30.15,South,180,6.0,6.0,53,0.00,,,0.00,meteohub,2013-01-23 16:42:00,
2013-01-23 11:47:00,14.0,0.0,30.14,West,270,4.0,6.0,53,0.00,,,0.00,meteohub,2013-01-23 16:47:00,
2013-01-23 11:52:00,13.8,0.3,30.14,West,270,3.0,7.0,54,0.00,,,0.00,meteohub,2013-01-23 16:52:00,
2013-01-23 11:57:00,13.8,0.3,30.14,West,270,3.0,7.0,54,0.00,,,0.00,meteohub,2013-01-23 16:57:00,
2013-01-23 12:02:00,14.2,0.1,30.13,SSW,203,4.0,7.0,53,0.00,,,0.00,meteohub,2013-01-23 17:02:00,
2013-01-23 12:07:00,14.4,0.3,30.13,WNW,293,4.0,6.0,53,0.00,,,0.00,meteohub,2013-01-23 17:07:00,
2013-01-23 12:12:00,14.4,0.3,30.13,SW,225,4.0,7.0,53,0.00,,,0.00,meteohub,2013-01-23 17:12:00,
2013-01-23 12:17:00,14.5,0.5,30.12,SW,225,4.0,7.0,53,0.00,,,0.00,meteohub,2013-01-23 17:17:00,
2013-01-23 12:22:00,14.7,1.0,30.12,West,270,2.0,7.0,54,0.00,,,0.00,meteohub,2013-01-23 17:22:00,
2013-01-23 12:27:00,14.9,1.2,30.12,West,270,3.0,7.0,54,0.00,,,0.00,meteohub,2013-01-23 17:27:00,
2013-01-23 12:32:00,15.3,1.6,30.12,SW,225,4.0,5.0,54,0.00,,,0.00,meteohub,2013-01-23 17:32:00,
2013-01-23 12:37:00,15.3,1.6,30.11,West,270,3.0,5.0,54,0.00,,,0.00,meteohub,2013-01-23 17:37:00,
2013-01-23 12:42:00,15.4,1.8,30.11,NW,315,3.0,7.0,54,0.00,,,0.00,meteohub,2013-01-23 17:42:00,
2013-01-23 12:47:00,15.6,1.9,30.11,West,270,4.0,7.0,54,0.00,,,0.00,meteohub,2013-01-23 17:47:00,
2013-01-23 12:52:00,15.8,1.8,30.10,West,270,3.0,7.0,53,0.00,,,0.00,meteohub,2013-01-23 17:52:00,
2013-01-23 12:57:00,16.2,2.1,30.10,SW,225,4.0,6.0,53,0.00,,,0.00,meteohub,2013-01-23 17:57:00,
2013-01-23 13:02:00,16.2,1.6,30.09,SW,225,2.0,6.0,52,0.00,,,0.00,meteohub,2013-01-23 18:02:00,
2013-01-23 13:07:00,16.7,2.5,30.09,SW,225,4.0,5.0,53,0.00,,,0.00,meteohub,2013-01-23 18:07:00,
2013-01-23 13:12:00,16.5,1.9,30.09,SW,225,4.0,5.0,52,0.00,,,0.00,meteohub,2013-01-23 18:12:00,
2013-01-23 13:17:00,16.7,2.1,30.08,SW,225,4.0,5.0,52,0.00,,,0.00,meteohub,2013-01-23 18:17:00,
2013-01-23 13:22:00,16.9,2.3,30.08,South,180,5.0,5.0,52,0.00,,,0.00,meteohub,2013-01-23 18:22:00,
2013-01-23 13:27:00,16.9,2.3,30.08,West,270,4.0,5.0,52,0.00,,,0.00,meteohub,2013-01-23 18:27:00,
2013-01-23 13:32:00,16.9,2.3,30.08,West,270,3.0,6.0,52,0.00,,,0.00,meteohub,2013-01-23 18:32:00,
2013-01-23 13:37:00,16.9,2.3,30.08,West,270,6.0,7.0,52,0.00,,,0.00,meteohub,2013-01-23 18:37:00,
2013-01-23 13:42:00,16.9,1.9,30.07,South,180,6.0,7.0,51,0.00,,,0.00,meteohub,2013-01-23 18:42:00,
2013-01-23 13:47:00,16.9,2.3,30.07,SW,225,5.0,6.0,52,0.00,,,0.00,meteohub,2013-01-23 18:47:00,
2013-01-23 13:52:00,16.9,2.3,30.07,West,270,4.0,7.0,52,0.00,,,0.00,meteohub,2013-01-23 18:52:00,
2013-01-23 13:57:00,16.9,2.3,30.07,SW,225,4.0,7.0,52,0.00,,,0.00,meteohub,2013-01-23 18:57:00,
2013-01-23 14:02:00,17.1,2.5,30.07,North,0,4.0,7.0,52,0.00,,,0.00,meteohub,2013-01-23 19:02:00,
2013-01-23 14:07:00,17.1,2.5,30.06,South,180,4.0,6.0,52,0.00,,,0.00,meteohub,2013-01-23 19:07:00,
2013-01-23 14:12:00,17.1,2.5,30.06,South,180,4.0,6.0,52,0.00,,,0.00,meteohub,2013-01-23 19:12:00,
2013-01-23 14:17:00,17.1,2.1,30.06,SW,225,5.0,6.0,51,0.00,,,0.00,meteohub,2013-01-23 19:17:00,
2013-01-23 14:22:00,17.1,2.1,30.06,West,270,6.0,6.0,51,0.00,,,0.00,meteohub,2013-01-23 19:22:00,
2013-01-23 14:27:00,17.2,2.3,30.06,WNW,293,3.0,6.0,51,0.00,,,0.00,meteohub,2013-01-23 19:27:00,
2013-01-23 14:32:00,17.4,1.9,30.06,West,270,4.0,6.0,50,0.00,,,0.00,meteohub,2013-01-23 19:32:00,
2013-01-23 14:37:00,17.2,1.4,30.05,NW,315,4.0,6.0,49,0.00,,,0.00,meteohub,2013-01-23 19:37:00,
2013-01-23 14:42:00,17.4,1.6,30.05,SW,225,4.0,5.0,49,0.00,,,0.00,meteohub,2013-01-23 19:42:00,
2013-01-23 14:47:00,17.2,1.4,30.05,West,270,4.0,5.0,49,0.00,,,0.00,meteohub,2013-01-23 19:47:00,
2013-01-23 14:52:00,17.4,1.0,30.05,West,270,2.0,7.0,48,0.00,,,0.00,meteohub,2013-01-23 19:52:00,
2013-01-23 14:57:00,17.6,0.9,30.04,SW,225,4.0,7.0,47,0.00,,,0.00,meteohub,2013-01-23 19:57:00,
2013-01-23 15:02:00,17.8,1.0,30.05,SW,225,3.0,7.0,47,0.00,,,0.00,meteohub,2013-01-23 20:02:00,
2013-01-23 15:07:00,18.0,1.0,30.05,West,270,4.0,6.0,47,0.00,,,0.00,meteohub,2013-01-23 20:07:00,
2013-01-23 15:12:00,18.1,0.9,30.04,SW,225,6.0,6.0,46,0.00,,,0.00,meteohub,2013-01-23 20:12:00,
2013-01-23 15:17:00,18.7,1.4,30.04,West,270,4.0,6.0,46,0.00,,,0.00,meteohub,2013-01-23 20:17:00,
2013-01-23 15:22:00,18.7,1.4,30.04,West,270,4.0,8.0,46,0.00,,,0.00,meteohub,2013-01-23 20:22:00,
2013-01-23 15:27:00,18.7,0.9,30.04,SW,225,3.0,8.0,45,0.00,,,0.00,meteohub,2013-01-23 20:27:00,
2013-01-23 15:32:00,19.4,3.4,30.04,SW,225,4.0,8.0,49,0.00,,,0.00,meteohub,2013-01-23 20:32:00,
2013-01-23 15:37:00,19.6,3.0,30.04,SW,225,4.0,6.0,48,0.00,,,0.00,meteohub,2013-01-23 20:37:00,
2013-01-23 15:42:00,19.0,0.7,30.04,West,270,3.0,6.0,44,0.00,,,0.00,meteohub,2013-01-23 20:42:00,
2013-01-23 15:47:00,18.9,0.1,30.04,West,270,4.0,6.0,43,0.00,,,0.00,meteohub,2013-01-23 20:47:00,
2013-01-23 15:52:00,18.3,-0.4,30.04,SW,225,5.0,6.0,43,0.00,,,0.00,meteohub,2013-01-23 20:52:00,
2013-01-23 15:57:00,18.5,0.1,30.03,NW,315,3.0,6.0,44,0.00,,,0.00,meteohub,2013-01-23 20:57:00,
2013-01-23 16:02:00,18.1,-0.6,30.03,SW,225,3.0,7.0,43,0.00,,,0.00,meteohub,2013-01-23 21:02:00,
2013-01-23 16:07:00,18.1,0.0,30.03,West,270,2.0,7.0,44,0.00,,,0.00,meteohub,2013-01-23 21:07:00,
2013-01-23 16:12:00,18.0,-0.2,30.03,South,180,3.0,7.0,44,0.00,,,0.00,meteohub,2013-01-23 21:12:00,
2013-01-23 16:17:00,17.6,-0.6,30.03,West,270,4.0,5.0,44,0.00,,,0.00,meteohub,2013-01-23 21:17:00,
2013-01-23 16:22:00,17.6,-0.6,30.03,South,180,4.0,5.0,44,0.00,,,0.00,meteohub,2013-01-23 21:22:00,
2013-01-23 16:27:00,17.2,-0.4,30.02,North,0,4.0,6.0,45,0.00,,,0.00,meteohub,2013-01-23 21:27:00,
2013-01-23 16:32:00,17.2,-0.4,30.03,SW,225,4.0,6.0,45,0.00,,,0.00,meteohub,2013-01-23 21:32:00,
2013-01-23 16:37:00,17.1,-0.6,30.03,South,180,2.0,6.0,45,0.00,,,0.00,meteohub,2013-01-23 21:37:00,
2013-01-23 16:42:00,17.1,-0.2,30.03,SE,135,2.0,4.0,46,0.00,,,0.00,meteohub,2013-01-23 21:42:00,
2013-01-23 16:47:00,17.1,-0.2,30.02,West,270,2.0,4.0,46,0.00,,,0.00,meteohub,2013-01-23 21:47:00,
2013-01-23 16:52:00,16.9,-0.4,30.02,SW,225,3.0,4.0,46,0.00,,,0.00,meteohub,2013-01-23 21:52:00,
2013-01-23 16:57:00,16.9,-0.4,30.02,South,180,3.0,5.0,46,0.00,,,0.00,meteohub,2013-01-23 21:57:00,
2013-01-23 17:02:00,16.7,0.0,30.02,SW,225,4.0,5.0,47,0.00,,,0.00,meteohub,2013-01-23 22:02:00,
2013-01-23 17:07:00,16.7,0.0,30.02,West,270,2.0,5.0,47,0.00,,,0.00,meteohub,2013-01-23 22:07:00,
2013-01-23 17:12:00,16.7,0.0,30.02,SW,225,5.0,5.0,47,0.00,,,0.00,meteohub,2013-01-23 22:12:00,
2013-01-23 17:17:00,16.5,-0.2,30.02,SW,225,3.0,5.0,47,0.00,,,0.00,meteohub,2013-01-23 22:17:00,
2013-01-23 17:22:00,16.5,-0.2,30.02,SE,135,3.0,5.0,47,0.00,,,0.00,meteohub,2013-01-23 22:22:00,
2013-01-23 17:27:00,16.5,-0.2,30.02,SW,225,2.0,5.0,47,0.00,,,0.00,meteohub,2013-01-23 22:27:00,
2013-01-23 17:32:00,16.3,-0.4,30.02,West,270,2.0,5.0,47,0.00,,,0.00,meteohub,2013-01-23 22:32:00,
2013-01-23 17:37:00,16.3,-0.4,30.02,SW,225,3.0,5.0,47,0.00,,,0.00,meteohub,2013-01-23 22:37:00,
2013-01-23 17:43:00,16.2,-0.6,30.02,SW,225,2.0,3.0,47,0.00,,,0.00,meteohub,2013-01-23 22:43:00,
2013-01-23 17:48:00,16.2,0.0,30.02,West,270,3.0,3.0,48,0.00,,,0.00,meteohub,2013-01-23 22:48:00,
2013-01-23 17:53:00,16.0,-0.2,30.02,SW,225,2.0,3.0,48,0.00,,,0.00,meteohub,2013-01-23 22:53:00,
2013-01-23 17:58:00,16.0,-0.2,30.02,South,180,2.0,3.0,48,0.00,,,0.00,meteohub,2013-01-23 22:58:00,
2013-01-23 18:03:00,15.8,-0.4,30.02,West,270,3.0,3.0,48,0.00,,,0.00,meteohub,2013-01-23 23:03:00,
2013-01-23 18:08:00,15.8,-0.4,30.02,SW,225,2.0,3.0,48,0.00,,,0.00,meteohub,2013-01-23 23:08:00,
2013-01-23 18:13:00,15.8,-0.4,30.02,South,180,2.0,4.0,48,0.00,,,0.00,meteohub,2013-01-23 23:13:00,
2013-01-23 18:18:00,15.6,0.3,30.02,SW,225,3.0,4.0,50,0.00,,,0.00,meteohub,2013-01-23 23:18:00,
2013-01-23 18:24:00,15.6,0.3,30.02,South,180,2.0,4.0,50,0.00,,,0.00,meteohub,2013-01-23 23:24:00,
2013-01-23 18:29:00,15.6,0.3,30.02,SW,225,1.0,4.0,50,0.00,,,0.00,meteohub,2013-01-23 23:29:00,
2013-01-23 18:34:00,15.6,0.3,30.02,South,180,2.0,3.0,50,0.00,,,0.00,meteohub,2013-01-23 23:34:00,
2013-01-23 18:39:00,15.6,0.7,30.02,West,270,4.0,4.0,51,0.00,,,0.00,meteohub,2013-01-23 23:39:00,
2013-01-23 18:44:00,15.6,0.7,30.02,WSW,248,2.0,4.0,51,0.00,,,0.00,meteohub,2013-01-23 23:44:00,
2013-01-23 18:49:00,15.6,0.7,30.02,South,180,2.0,4.0,51,0.00,,,0.00,meteohub,2013-01-23 23:49:00,
2013-01-23 18:54:00,15.4,0.5,30.02,South,180,2.0,4.0,51,0.00,,,0.00,meteohub,2013-01-23 23:54:00,
2013-01-23 18:59:00,15.4,0.5,30.02,NE,45,2.0,4.0,51,0.00,,,0.00,meteohub,2013-01-23 23:59:00,
2013-01-23 19:05:00,15.4,1.0,30.02,SW,225,1.0,2.0,52,0.00,,,0.00,meteohub,2013-01-24 00:05:00,
2013-01-23 19:10:00,15.4,1.0,30.02,South,180,2.0,2.0,52,0.00,,,0.00,meteohub,2013-01-24 00:10:00,
2013-01-23 19:15:00,15.3,1.2,30.02,South,180,2.0,2.0,53,0.00,,,0.00,meteohub,2013-01-24 00:15:00,
2013-01-23 19:20:00,15.3,1.2,30.02,West,270,2.0,3.0,53,0.00,,,0.00,meteohub,2013-01-24 00:20:00,
2013-01-23 19:25:00,15.3,1.2,30.02,NE,45,2.0,3.0,53,0.00,,,0.00,meteohub,2013-01-24 00:25:00,
2013-01-23 19:30:00,15.3,1.2,30.02,SW,225,2.0,3.0,53,0.00,,,0.00,meteohub,2013-01-24 00:30:00,
2013-01-23 19:35:00,15.1,1.0,30.02,SW,225,0.0,3.0,53,0.00,,,0.00,meteohub,2013-01-24 00:35:00,
2013-01-23 19:40:00,15.1,1.4,30.02,SW,225,2.0,3.0,54,0.00,,,0.00,meteohub,2013-01-24 00:40:00,
2013-01-23 19:46:00,14.9,1.2,30.02,SW,225,0.0,2.0,54,0.00,,,0.00,meteohub,2013-01-24 00:46:00,
2013-01-23 19:51:00,14.9,1.2,30.02,South,180,0.0,2.0,54,0.00,,,0.00,meteohub,2013-01-24 00:51:00,
2013-01-23 19:56:00,14.7,1.0,30.02,West,270,1.0,2.0,54,0.00,,,0.00,meteohub,2013-01-24 00:56:00,
2013-01-23 20:01:00,14.7,1.0,30.01,South,180,2.0,2.0,54,0.00,,,0.00,meteohub,2013-01-24 01:01:00,
2013-01-23 20:06:00,14.7,1.0,30.01,South,180,2.0,2.0,54,0.00,,,0.00,meteohub,2013-01-24 01:06:00,
2013-01-23 20:11:00,14.7,1.0,30.01,South,180,2.0,2.0,54,0.00,,,0.00,meteohub,2013-01-24 01:11:00,
2013-01-23 20:16:00,14.7,1.0,30.01,SW,225,2.0,4.0,54,0.00,,,0.00,meteohub,2013-01-24 01:16:00,
2013-01-23 20:21:00,14.7,1.0,30.01,SW,225,2.0,4.0,54,0.00,,,0.00,meteohub,2013-01-24 01:21:00,
2013-01-23 20:26:00,14.7,1.4,30.01,SW,225,2.0,4.0,55,0.00,,,0.00,meteohub,2013-01-24 01:26:00,
2013-01-23 20:32:00,14.7,1.4,30.01,South,180,2.0,2.0,55,0.00,,,0.00,meteohub,2013-01-24 01:32:00,
2013-01-23 20:37:00,14.5,1.8,30.01,SW,225,2.0,2.0,56,0.00,,,0.00,meteohub,2013-01-24 01:37:00,
2013-01-23 20:42:00,14.4,1.6,30.01,SW,225,2.0,2.0,56,0.00,,,0.00,meteohub,2013-01-24 01:42:00,
2013-01-23 20:47:00,14.4,1.6,30.01,SW,225,0.0,3.0,56,0.00,,,0.00,meteohub,2013-01-24 01:47:00,
2013-01-23 20:52:00,14.2,1.4,30.01,SSE,158,0.0,3.0,56,0.00,,,0.00,meteohub,2013-01-24 01:52:00,
2013-01-23 20:57:00,14.0,1.6,30.01,South,180,0.0,3.0,57,0.00,,,0.00,meteohub,2013-01-24 01:57:00,
2013-01-23 21:02:00,13.8,1.8,30.01,South,180,0.0,0.0,58,0.00,,,0.00,meteohub,2013-01-24 02:02:00,
2013-01-23 21:07:00,13.8,1.8,30.01,South,180,0.0,0.0,58,0.00,,,0.00,meteohub,2013-01-24 02:07:00,
2013-01-23 21:12:00,13.5,1.8,30.01,South,180,0.0,0.0,59,0.00,,,0.00,meteohub,2013-01-24 02:12:00,
2013-01-23 21:17:00,13.3,1.6,30.01,South,180,0.0,0.0,59,0.00,,,0.00,meteohub,2013-01-24 02:17:00,
2013-01-23 21:22:00,13.3,1.6,30.01,South,180,0.0,0.0,59,0.00,,,0.00,meteohub,2013-01-24 02:22:00,
2013-01-23 21:27:00,13.3,1.9,30.02,South,180,0.0,0.0,60,0.00,,,0.00,meteohub,2013-01-24 02:27:00,
2013-01-23 21:32:00,13.3,1.9,30.01,South,180,0.0,0.0,60,0.00,,,0.00,meteohub,2013-01-24 02:32:00,
2013-01-23 21:37:00,13.3,2.3,30.02,SW,225,0.0,0.0,61,0.00,,,0.00,meteohub,2013-01-24 02:37:00,
2013-01-23 21:42:00,13.5,2.5,30.02,SW,225,0.0,0.0,61,0.00,,,0.00,meteohub,2013-01-24 02:42:00,
2013-01-23 21:47:00,13.5,2.8,30.02,SW,225,0.0,0.0,62,0.00,,,0.00,meteohub,2013-01-24 02:47:00,
2013-01-23 21:52:00,13.5,2.8,30.02,West,270,0.0,0.0,62,0.00,,,0.00,meteohub,2013-01-24 02:52:00,
2013-01-23 21:57:00,13.5,2.8,30.02,SW,225,0.0,0.0,62,0.00,,,0.00,meteohub,2013-01-24 02:57:00,
2013-01-23 22:02:00,13.5,2.8,30.02,SW,225,0.0,0.0,62,0.00,,,0.00,meteohub,2013-01-24 03:02:00,
2013-01-23 22:07:00,13.5,2.8,30.02,West,270,0.0,0.0,62,0.00,,,0.00,meteohub,2013-01-24 03:07:00,
2013-01-23 22:12:00,13.5,3.2,30.02,West,270,0.0,0.0,63,0.00,,,0.00,meteohub,2013-01-24 03:12:00,
2013-01-23 22:17:00,13.5,3.2,30.02,NE,45,0.0,0.0,63,0.00,,,0.00,meteohub,2013-01-24 03:17:00,
2013-01-23 22:22:00,13.5,3.2,30.03,NE,45,0.0,0.0,63,0.00,,,0.00,meteohub,2013-01-24 03:22:00,
2013-01-23 22:28:00,13.3,3.0,30.02,NE,45,0.0,0.0,63,0.00,,,0.00,meteohub,2013-01-24 03:28:00,
2013-01-23 22:33:00,13.3,3.4,30.02,NE,45,0.0,0.0,64,0.00,,,0.00,meteohub,2013-01-24 03:33:00,
2013-01-23 22:38:00,13.3,3.4,30.03,NE,45,0.0,0.0,64,0.00,,,0.00,meteohub,2013-01-24 03:38:00,
2013-01-23 22:43:00,13.3,3.4,30.03,NE,45,0.0,0.0,64,0.00,,,0.00,meteohub,2013-01-24 03:43:00,
2013-01-23 22:48:00,13.1,3.2,30.03,NE,45,0.0,0.0,64,0.00,,,0.00,meteohub,2013-01-24 03:48:00,
2013-01-23 22:53:00,12.9,3.0,30.03,NW,315,0.0,0.0,64,0.00,,,0.00,meteohub,2013-01-24 03:53:00,
2013-01-23 22:58:00,13.1,3.2,30.03,North,0,0.0,0.0,64,0.00,,,0.00,meteohub,2013-01-24 03:58:00,
2013-01-23 23:04:00,13.1,3.2,30.04,North,0,0.0,0.0,64,0.00,,,0.00,meteohub,2013-01-24 04:04:00,
2013-01-23 23:09:00,12.7,3.2,30.04,NW,315,0.0,0.0,65,0.00,,,0.00,meteohub,2013-01-24 04:09:00,
2013-01-23 23:14:00,12.7,3.2,30.04,NW,315,0.0,0.0,65,0.00,,,0.00,meteohub,2013-01-24 04:14:00,
2013-01-23 23:19:00,12.7,3.2,30.04,NW,315,0.0,0.0,65,0.00,,,0.00,meteohub,2013-01-24 04:19:00,
2013-01-23 23:24:00,12.7,3.2,30.04,NW,315,0.0,0.0,65,0.00,,,0.00,meteohub,2013-01-24 04:24:00,
2013-01-23 23:29:00,12.7,3.2,30.04,NW,315,0.0,0.0,65,0.00,,,0.00,meteohub,2013-01-24 04:29:00,
2013-01-23 23:34:00,12.7,3.2,30.04,NW,315,1.0,0.0,65,0.00,,,0.00,meteohub,2013-01-24 04:34:00,
2013-01-23 23:40:00,12.7,3.2,30.04,NW,315,2.0,2.0,65,0.00,,,0.00,meteohub,2013-01-24 04:40:00,
2013-01-23 23:45:00,12.7,3.6,30.04,NW,315,1.0,2.0,66,0.00,,,0.00,meteohub,2013-01-24 04:45:00,
2013-01-23 23:50:00,12.7,3.6,30.05,North,0,2.0,2.0,66,0.00,,,0.00,meteohub,2013-01-24 04:50:00,
2013-01-23 23:55:00,12.9,3.7,30.05,North,0,2.0,2.0,66,0.00,,,0.00,meteohub,2013-01-24 04:55:00,